Volver al catálogo

DELTA 1 DEB

ActivoLEO
NORAD 7130·DEBRIS·🇺🇸 United States

Lanzado Nov 6, 1973 desde Vandenberg Space Force Base

Loading…

Próximos Pases (próximas 24 horas)

TLE

ActualizadoSource: Space-Track

Época: Sep 14, 2026, 09:03 UTC

1 07130U 73086CU  26257.37761074  .00005569  00000-0  92054-2 0  9999
2 07130 102.4025  57.7558 0049472 161.1209 230.1328 13.46987466473872

Sigue DELTA 1 DEB en tiempo real con AllMySat

Download on the App Store